This is the latest recevied weather packets stored in our database for station/object EA1GEC-10. If no packets are shown the sender has not sent any weather packets the latest 10 day(s).
| Time | Temp. | Humidity | Pressure | Rain* | Wind** | Luminosity | Snow |
|---|---|---|---|---|---|---|---|
| 1777037975 | 26.11° C | 33% | 1024.2 hPa | - | - | - | - |
| 1777037075 | 36.11° C | 25% | 1024.4 hPa | - | - | - | - |
| 1777036175 | 38.33° C | 25% | 1024.5 hPa | - | - | - | - |
| 1777035275 | 38.33° C | 26% | 1024.5 hPa | - | - | - | - |
| 1777034375 | 37.78° C | 27% | 1024.8 hPa | - | - | - | - |
| 1777033484 | 36.11° C | 31% | 1024.8 hPa | - | - | - | - |
| 1777032575 | 31.11° C | 39% | 1024.8 hPa | - | - | - | - |
| 1777031675 | 22.22° C | 48% | 1024.7 hPa | - | - | - | - |
| 1777030774 | 21.67° C | 48% | 1024.6 hPa | - | - | - | - |
| 1777029874 | 22.22° C | 48% | 1024.7 hPa | - | - | - | - |
| 1777028974 | 21.67° C | 49% | 1024.8 hPa | - | - | - | - |
| 1777028074 | 20° C | 52% | 1024.8 hPa | - | - | - | - |
| 1777027174 | 21.11° C | 50% | 1024.6 hPa | - | - | - | - |
| 1777026274 | 21.67° C | 51% | 1024.7 hPa | - | - | - | - |
| 1777025374 | 20.56° C | 53% | 1024.8 hPa | - | - | - | - |
| 1777023574 | 19.44° C | 55% | 1024.8 hPa | - | - | - | - |
| 1777022674 | 19.44° C | 56% | 1024.8 hPa | - | - | - | - |
| 1777021774 | 18.89° C | 58% | 1024.8 hPa | - | - | - | - |
| 1777020873 | 17.78° C | 59% | 1024.6 hPa | - | - | - | - |
| 1777019973 | 16.67° C | 61% | 1024.5 hPa | - | - | - | - |
| 1777019073 | 16.67° C | 61% | 1024.5 hPa | - | - | - | - |
| 1777018173 | 16.67° C | 62% | 1024.4 hPa | - | - | - | - |
| 1777017273 | 16.67° C | 63% | 1024.3 hPa | - | - | - | - |
| 1777015482 | 16.11° C | 65% | 1024 hPa | - | - | - | - |
| 1777014573 | 15.56° C | 65% | 1023.8 hPa | - | - | - | - |
* Rain since midnight (hover to see other rain measurements)
** Current wind speed in m/s (hover to see current wind gust speed)